Vorticity
21 23 9 -39 28 -14 10 12 -16 26 -10 26 8 -13 1 -20 20 8 17 -2 -1 3 6 4 7 11 8 5 13 4 6 5 0 3 3 3 3 4 5 5 6 3 -0 1
17 20 3 13 9 10 4 12 17 -16 9 -5 -14 -1 26 28 -4 12 16 12 2 -2 7 1 6 15 12 12 4 15 8 5 2 -4 2 2 5 5 3 1 2 2 1 0
10 43 27 2 -12 15 -7 16 12 6 9 22 13 -0 5 7 7 17 7 6 16 9 4 -4 -1 0 4 6 10 5 9 8 9 6 4 5 3 3 4 4 5 2 3 3
19 5 18 7 19 -20 -1 -6 -2 11 17 3 8 21 22 1 8 8 15 7 13 15 24 21 -1 -3 -0 -1 7 6 6 9 11 7 3 1 2 4 5 6 5 3 2 2
-1 33 12 17 25 -2 14 1 -8 3 13 3 26 -24 46 20 22 11 8 23 4 20 -4 1 7 12 4 2 5 7 6 5 3 4 7 6 5 5 4 4 3 -1 -2 0
1 -9 15 22 34 18 -0 26 6 27 17 -7 17 -34 34 12 24 1 31 17 15 18 -2 -2 1 -2 5 11 9 7 10 13 11 4 3 4 4 3 3 4 5 7 9 9
7 13 3 21 13 27 -4 24 5 6 2 8 34 7 -50 37 19 20 6 25 22 4 5 3 3 3 3 2 7 9 6 6 10 12 12 11 13 13 12 10 9 12 14 15
9 44 12 26 21 20 -12 -19 -10 8 8 20 37 19 -35 48 23 19 11 21 16 13 8 18 14 10 14 14 12 6 7 10 10 10 10 11 10 11 12 12 10 8 8 7
11 25 22 2 2 2 24 13 -9 -0 12 -2 4 18 4 35 -1 -3 19 10 6 5 15 8 11 14 18 18 18 17 16 16 18 17 16 16 16 15 15 16 16 15 13 13
23 -4 55 29 23 12 -2 -10 -6 5 5 5 24 5 -32 15 6 6 -2 2 13 22 25 24 22 20 18 17 17 16 14 12 11 11 11 10 9 9 9 9 10 11 11 10
7 4 41 18 9 -1 21 7 -3 5 2 7 7 14 41 -12 28 13 13 17 20 23 18 16 14 11 9 9 8 8 7 7 7 7 7 7 7 8 7 7 6 6 6 6
33 20 3 12 11 7 18 27 -10 -26 21 5 8 10 11 27 13 15 17 16 12 13 12 10 7 6 6 5 5 5 5 5 5 5 5 5 6 6 8 10 11 12 11 11
12 31 -11 1 31 24 19 4 10 -6 4 11 -8 2 20 24 16 20 22 11 10 10 9 6 5 5 5 5 5 6 6 7 8 9 9 9 11 12 13 12 12 10 11 12
-4 15 20 12 18 15 -13 15 7 -9 2 16 -8 7 12 12 13 9 10 8 10 8 5 6 7 6 7 7 7 6 6 8 8 12 13 12 12 11 12 13 13 13 12 11
7 16 16 5 19 39 29 1 -11 -6 -4 -10 18 21 9 10 11 12 5 16 8 6 3 3 5 6 6 7 8 8 9 9 12 12 13 11 12 12 12 12 12 11 13 13
14 9 5 4 23 33 20 25 23 25 -2 -11 34 6 11 7 19 22 3 -1 2 9 5 10 4 11 12 11 9 11 15 15 13 13 13 12 13 12 13 16 16 16 16 15
10 2 8 16 12 16 14 6 5 8 10 5 -2 12 26 10 4 7 1 -2 -1 2 6 19 22 14 10 8 5 7 10 8 18 14 13 13 14 16 18 16 14 11 12 15
4 6 6 19 1 8 21 21 21 17 10 6 5 -2 5 11 2 4 6 7 14 14 19 7 5 6 4 7 12 19 16 25 16 15 13 13 15 16 13 11 9 11 15 5
10 7 9 11 17 15 10 12 15 -0 19 28 4 12 5 5 10 11 10 8 11 5 7 5 3 4 7 6 7 17 15 17 16 12 12 15 12 9 11 11 11 11 12 13
14 9 2 3 11 9 14 14 36 -2 -2 27 -3 3 9 13 11 13 11 19 13 7 6 4 3 14 6 10 13 13 10 16 12 11 11 9 7 12 14 13 14 14 6 20
12 14 7 5 11 10 13 17 7 -4 24 15 18 18 8 9 11 8 18 13 10 8 5 9 14 17 18 19 10 15 19 12 12 14 10 9 10 13 7 18 10 16 18 17
6 6 8 8 8 13 12 14 -11 10 13 7 3 0 11 10 6 29 12 10 7 7 14 10 10 9 13 14 24 12 10 10 19 19 12 11 14 9 9 15 14 8 6 8
11 1 15 4 13 9 16 5 4 6 9 8 10 4 10 11 6 23 19 30 17 14 12 7 5 16 12 16 16 15 6 11 18 16 9 8 12 11 14 11 5 7 8 6
9 16 6 9 9 17 18 10 9 14 7 6 7 8 11 6 14 6 9 8 18 9 6 12 9 11 13 18 14 11 6 10 9 10 8 17 14 17 7 6 9 7 6 7
1 4 15 11 -1 6 3 -5 6 13 9 11 10 12 10 8 8 8 9 12 15 9 9 8 6 12 13 26 26 11 13 9 10 20 21 18 14 5 6 7 5 6 7 8
20 13 10 10 14 6 6 11 8 10 7 3 6 8 7 7 7 14 3 14 7 11 7 9 6 13 11 15 28 24 25 20 23 20 14 8 5 7 7 6 5 6 7 8
Height
3014 3020 3016 3025 3033 3039 3045 3050 3056 3061 3068 3072 3074 3076 3079 3086 3087 3089 3094 3100 3104 3108 3113 3115 3118 3121 3124 3127 3129 3134 3139 3143 3143 3145 3149 3151 3153 3155 3158 3159 3161 3162 3163 3164
3014 3011 3020 3025 3028 3036 3042 3048 3052 3061 3065 3069 3071 3070 3077 3080 3081 3084 3088 3093 3097 3102 3107 3110 3113 3115 3117 3121 3124 3127 3131 3136 3140 3142 3144 3146 3148 3149 3151 3153 3155 3157 3158 3159
3009 3013 3018 3021 3026 3032 3038 3044 3051 3056 3061 3066 3068 3068 3071 3072 3075 3079 3082 3086 3090 3096 3102 3106 3108 3110 3112 3114 3117 3120 3124 3128 3132 3136 3137 3139 3140 3142 3144 3147 3149 3150 3150 3150
3008 3012 3014 3018 3022 3031 3036 3042 3049 3055 3060 3059 3065 3062 3059 3066 3068 3071 3074 3078 3083 3089 3093 3097 3101 3103 3104 3107 3110 3114 3119 3121 3123 3127 3129 3132 3135 3136 3139 3141 3141 3142 3142 3143
3005 3009 3012 3013 3020 3031 3033 3041 3046 3051 3053 3058 3059 3062 3054 3061 3061 3060 3062 3068 3075 3083 3086 3088 3091 3095 3098 3100 3103 3107 3112 3116 3118 3117 3120 3122 3126 3129 3132 3134 3135 3136 3136 3135
3004 3007 3009 3013 3019 3028 3034 3040 3045 3048 3051 3053 3053 3056 3049 3051 3049 3055 3060 3063 3069 3075 3078 3080 3083 3087 3090 3093 3097 3100 3104 3106 3110 3112 3111 3114 3116 3118 3120 3123 3125 3127 3127 3127
3000 3001 3007 3010 3017 3027 3032 3033 3036 3044 3047 3047 3049 3053 3038 3043 3045 3047 3052 3055 3061 3065 3069 3073 3076 3081 3084 3086 3089 3092 3096 3098 3100 3103 3106 3106 3108 3109 3109 3109 3110 3114 3115 3116
2997 3000 3001 3004 3009 3012 3023 3027 3030 3038 3039 3040 3044 3042 3036 3039 3040 3042 3047 3051 3054 3058 3061 3065 3069 3073 3076 3079 3082 3084 3086 3089 3092 3094 3096 3098 3099 3100 3102 3102 3101 3101 3104 3105
2990 2992 2995 3002 3007 3015 3015 3022 3029 3030 3035 3037 3038 3037 3035 3034 3036 3039 3043 3046 3049 3052 3054 3058 3062 3066 3069 3071 3074 3076 3079 3081 3084 3087 3088 3090 3091 3092 3093 3094 3094 3094 3095 3097
2982 2988 2994 2998 3008 3014 3014 3019 3024 3026 3039 3039 3033 3033 3031 3030 3032 3036 3039 3043 3045 3045 3049 3052 3057 3060 3063 3065 3068 3070 3072 3075 3077 3079 3081 3082 3083 3084 3085 3086 3087 3088 3088 3089
2986 2987 2995 3001 3007 3007 3009 3017 3022 3027 3031 3033 3033 3030 3027 3030 3032 3033 3036 3038 3040 3043 3045 3049 3053 3056 3058 3061 3064 3066 3068 3071 3072 3073 3074 3076 3077 3078 3079 3079 3080 3080 3081 3082
2983 2988 2994 3001 3005 3010 3012 3017 3020 3022 3028 3029 3029 3027 3025 3027 3028 3030 3033 3035 3038 3041 3044 3048 3051 3054 3056 3058 3061 3062 3064 3066 3067 3067 3068 3068 3070 3070 3071 3071 3072 3072 3073 3073
2984 2990 2996 3003 3009 3010 3011 3014 3017 3019 3022 3024 3027 3024 3022 3024 3025 3028 3030 3034 3036 3040 3043 3047 3049 3052 3054 3055 3057 3058 3059 3060 3060 3060 3060 3061 3061 3062 3063 3063 3064 3064 3065 3065
2987 2990 2993 2995 2996 3000 3006 3010 3014 3016 3020 3021 3022 3022 3023 3024 3024 3027 3030 3034 3037 3040 3042 3045 3047 3049 3050 3051 3052 3052 3052 3053 3053 3053 3053 3054 3054 3055 3055 3055 3056 3056 3057 3057
2992 2993 2994 2995 2995 2996 3000 3005 3010 3014 3015 3017 3021 3021 3022 3024 3025 3027 3031 3033 3036 3038 3040 3042 3044 3045 3045 3046 3046 3046 3046 3046 3046 3046 3046 3047 3047 3048 3048 3048 3049 3049 3050 3050
2993 2995 2996 2997 2998 2999 3001 3005 3009 3012 3014 3017 3020 3021 3022 3024 3026 3027 3029 3031 3034 3036 3038 3039 3040 3040 3040 3040 3040 3039 3039 3039 3039 3040 3040 3041 3040 3041 3041 3042 3043 3043 3043 3044
2995 2996 2997 3000 3001 3002 3006 3005 3007 3009 3012 3017 3018 3019 3019 3022 3024 3026 3028 3030 3031 3032 3033 3034 3034 3035 3035 3035 3034 3033 3032 3033 3032 3033 3034 3034 3035 3035 3035 3036 3037 3038 3039 3040
2996 2997 2998 3001 3003 3006 3004 3004 3006 3009 3012 3015 3016 3018 3020 3021 3023 3024 3025 3026 3028 3028 3029 3030 3031 3030 3030 3029 3029 3027 3026 3026 3026 3027 3029 3029 3029 3030 3031 3032 3033 3035 3036 3037
2997 2997 2999 3001 3002 3004 3004 3004 3005 3007 3010 3011 3013 3015 3017 3019 3020 3021 3022 3022 3023 3024 3026 3027 3026 3026 3025 3024 3023 3022 3021 3021 3021 3023 3024 3025 3026 3027 3028 3029 3031 3032 3033 3034
2997 2997 2999 3000 3001 3003 3004 3003 3004 3007 3009 3009 3011 3013 3015 3017 3016 3017 3017 3018 3019 3020 3021 3022 3022 3021 3020 3020 3019 3018 3016 3016 3017 3018 3020 3021 3022 3024 3025 3027 3028 3030 3030 3030
2998 2999 2999 3000 3001 3002 3002 3003 3005 3008 3011 3007 3009 3012 3013 3013 3014 3013 3013 3014 3015 3016 3017 3017 3017 3016 3015 3014 3014 3013 3012 3013 3014 3015 3017 3019 3020 3022 3023 3024 3026 3027 3028 3029
2999 2999 3000 3001 3000 3002 3001 3003 3005 3006 3006 3007 3008 3009 3010 3010 3010 3009 3010 3010 3011 3012 3012 3012 3012 3011 3009 3009 3009 3009 3009 3009 3010 3011 3014 3016 3018 3020 3021 3022 3024 3026 3028 3029
3001 3001 3001 3001 3000 3000 3001 3003 3004 3005 3006 3007 3008 3009 3008 3008 3007 3006 3006 3006 3007 3008 3009 3009 3008 3007 3006 3005 3005 3005 3006 3006 3007 3009 3011 3013 3015 3018 3019 3021 3024 3026 3027 3027
2998 2998 2999 3000 3000 2999 3001 3003 3004 3004 3005 3006 3006 3007 3007 3007 3006 3005 3004 3004 3005 3006 3006 3006 3005 3004 3002 3001 3000 3002 3003 3004 3005 3006 3008 3011 3013 3015 3018 3021 3023 3025 3026 3027
2998 2997 2997 2998 2998 2999 3000 3002 3002 3003 3004 3004 3004 3004 3005 3005 3005 3004 3004 3003 3003 3004 3003 3003 3002 3001 2999 2997 2996 2998 2999 3000 3001 3003 3006 3008 3012 3015 3017 3019 3021 3023 3024 3026
2994 2995 2996 2996 2996 2997 2999 3000 3000 3001 3002 3002 3002 3002 3003 3003 3002 3002 3002 3001 3001 3001 3001 3001 3000 2999 2997 2996 2995 2995 2995 2996 2999 3003 3006 3009 3012 3014 3016 3017 3019 3021 3022 3023